CAPE
0 0 0 0 0 0 0 0 0 0 0 0 0 0 0 0 0 0 0 0 0 0 0 0 0 0 0 0 0 0 120 472 1282 1224 1040 915 851 840 914 860 723 403 307 154
0 0 0 0 0 0 0 0 0 0 0 0 0 0 0 0 0 0 0 0 0 0 0 0 0 0 0 0 0 0 0 0 156 991 1423 1065 795 668 796 806 941 808 314 134
0 0 0 0 0 0 0 0 0 0 0 0 0 0 0 0 0 0 0 0 0 0 0 0 0 0 0 0 0 0 0 0 0 0 23 270 844 789 703 568 535 451 345 243
0 0 0 0 0 0 0 0 0 0 0 0 0 0 0 0 0 0 0 0 0 0 0 0 0 0 0 0 0 0 0 0 0 0 0 0 0 0 0 0 140 714 550 349
0 0 0 0 0 0 0 0 0 0 0 0 0 0 0 0 0 0 0 0 0 0 0 0 0 0 0 0 0 0 0 0 0 0 0 0 0 0 0 0 0 0 0 0
0 0 0 0 0 0 0 0 0 0 0 0 0 0 0 0 0 0 0 0 0 0 0 0 0 0 0 0 0 0 0 0 0 0 0 0 0 0 0 0 0 0 0 1
0 0 0 0 0 0 0 0 0 0 0 0 0 0 0 0 0 0 0 0 0 0 0 0 0 0 0 0 0 0 0 0 0 0 0 0 0 0 0 0 0 0 2 5
0 0 0 0 0 0 0 0 0 0 0 0 0 0 0 0 0 0 0 0 0 0 0 0 0 0 0 0 0 0 0 0 0 0 0 0 0 0 0 0 0 0 3 6
0 0 0 0 0 0 0 0 0 0 0 0 0 0 0 0 0 0 0 0 0 0 0 0 0 0 0 0 0 0 0 0 0 0 0 0 7 28 56 64 53 27 4 0
0 0 0 0 0 0 0 0 0 0 0 0 0 0 0 0 0 0 0 0 0 0 0 0 0 0 0 0 0 0 0 0 0 0 0 4 41 81 119 159 181 154 118 40
0 0 0 0 0 0 0 0 0 0 0 0 0 0 0 0 0 0 0 0 0 0 0 0 0 0 0 0 0 0 0 0 0 18 56 71 126 192 195 221 285 286 272 245
0 0 0 0 0 0 0 0 0 0 0 0 0 0 0 0 0 0 0 0 0 0 0 0 0 0 0 0 0 0 0 0 0 3 85 227 354 389 375 392 414 418 425 395
0 0 0 0 0 0 0 0 0 0 0 0 0 0 0 0 0 0 0 0 0 0 0 0 0 0 0 0 0 0 0 0 0 0 1 40 146 230 292 321 496 515 561 562
0 0 0 0 0 0 0 0 0 0 0 0 0 0 0 0 0 0 0 0 0 0 0 0 0 0 0 0 0 0 0 0 0 0 0 0 0 1 124 363 563 600 602 526
0 0 0 0 0 0 0 0 0 0 0 0 0 0 0 0 0 0 0 0 0 0 0 0 0 0 0 0 0 0 0 0 0 0 0 0 0 0 0 177 453 446 422 412
0 0 0 0 0 0 0 0 0 0 0 0 0 0 0 0 0 0 0 0 0 0 0 0 0 0 0 0 0 0 0 0 0 0 0 0 0 0 0 0 166 198 222 262
0 0 1 0 0 0 0 0 0 0 0 0 0 0 0 0 0 0 0 0 0 0 0 0 0 0 0 0 0 0 0 0 0 0 0 0 0 0 0 0 0 88 173 266
0 0 0 0 0 0 0 0 0 0 0 0 0 0 0 0 0 0 0 0 0 0 0 0 0 0 0 0 0 0 0 0 0 0 0 0 0 0 0 1 11 70 151 231
0 0 0 0 0 0 0 0 0 0 0 0 0 0 0 0 0 0 0 0 0 0 0 0 0 0 0 0 0 0 0 0 2 0 0 0 2 0 0 6 62 96 58 152
0 0 0 0 0 0 0 0 0 0 0 0 0 0 0 0 0 0 0 0 0 3 8 10 7 2 1 0 2 3 0 0 1 0 14 16 1 3 42 73 1 0 0 0
0 0 0 0 0 0 0 0 0 0 0 0 0 0 0 0 1 0 0 0 0 0 0 1 0 1 1 3 3 7 14 12 6 5 0 0 0 0 0 0 0 0 1 1
0 0 0 0 0 0 0 0 0 0 0 0 0 0 0 0 0 0 0 0 0 0 0 0 0 2 2 2 3 5 5 9 10 11 2 0 0 0 0 0 0 0 2 2
0 0 0 0 0 0 0 0 0 0 0 0 0 4 0 0 0 0 0 0 0 0 0 0 2 1 1 3 3 5 7 5 7 1 0 0 0 0 1 2 0 0 1 2
0 0 0 0 0 0 0 0 0 0 0 1 3 0 0 0 0 0 0 0 0 1 1 1 0 6 6 6 7 14 11 13 6 0 0 0 1 1 0 2 2 2 2 1
0 0 0 0 0 0 0 0 0 0 0 0 0 0 0 0 0 0 0 0 1 0 0 1 0 5 1 4 2 3 3 10 5 8 0 0 1 1 1 0 1 1 1 2
0 0 0 0 0 0 0 0 0 0 0 0 0 0 0 0 0 0 0 1 1 3 2 1 2 2 2 1 1 1 2 2 3 1 1 1 1 2 1 1 1 0 0 1
CIN
-0 -0 -0 -0 -0 -0 -0 -0 -0 -0 -0 -0 -0 -0 -0 -0 -0 -0 -0 -0 -0 -0 -0 -0 -0 -0 -0 -0 -0 -0 -340 -188 -47 -59 -73 -79 -101 -106 -85 -93 -122 -197 -230 -256
-0 -0 -0 -0 -0 -0 -0 -0 -0 -0 -0 -0 -0 -0 -0 -0 -0 -0 -0 -0 -0 -0 -0 -0 -0 -0 -0 -0 -0 -0 -0 -0 -188 -52 -6 -31 -61 -80 -56 -63 -58 -72 -202 -263
-0 -0 -0 -0 -0 -0 -0 -0 -0 -0 -0 -0 -0 -0 -0 -0 -0 -0 -0 -0 -0 -0 -0 -0 -0 -0 -0 -0 -0 -0 -0 -0 -0 -0 -111 -175 -18 -16 -26 -46 -60 -115 -147 -186
-0 -0 -0 -0 -0 -0 -0 -0 -0 -0 -0 -0 -0 -0 -0 -0 -0 -0 -0 -0 -0 -0 -0 -0 -0 -0 -0 -0 -0 -0 -0 -0 -0 -0 -0 -0 -0 -0 -0 -0 -185 -3 -12 -82
-0 -0 -0 -0 -0 -0 -0 -0 -0 -0 -0 -0 -0 -0 -0 -0 -0 -0 -0 -0 -0 -0 -0 -0 -0 -0 -0 -0 -0 -0 -0 -0 -0 -0 -0 -0 -0 -0 -0 -0 -0 -0 -0 -0
-0 -0 -0 -0 -0 -0 -0 -0 -0 -0 -0 -0 -0 -0 -0 -0 -0 -0 -0 -0 -0 -0 -0 -0 -0 -0 -0 -0 -0 -0 -0 -0 -0 -0 -0 -0 -0 -0 -0 -0 -0 -0 -0 -0
-0 -0 -0 -0 -0 -0 -0 -0 -0 -0 -0 -0 -0 -0 -0 -0 -0 -0 -0 -0 -0 -0 -0 -0 -0 -0 -0 -0 -0 -0 -0 -0 -0 -0 -0 -0 -0 -0 -0 -0 -0 -0 -1 -1
-0 -0 -0 -0 -0 -0 -0 -0 -0 -0 -0 -0 -0 -0 -0 -0 -0 -0 -0 -0 -0 -0 -0 -0 -0 -0 -0 -0 -0 -0 -0 -0 -0 -0 -0 -0 -0 -0 -0 -0 -0 -0 -1 -0
-0 -0 -0 -0 -0 -0 -0 -0 -0 -0 -0 -0 -0 -0 -0 -0 -0 -0 -0 -0 -0 -0 -0 -0 -0 -0 -0 -0 -0 -0 -0 -0 -0 -0 -0 -0 -117 -95 -64 -40 -34 -44 -39 -0
-0 -0 -0 -0 -0 -0 -0 -0 -0 -0 -0 -0 -0 -0 -0 -0 -0 -0 -0 -0 -0 -0 -0 -0 -0 -0 -0 -0 -0 -0 -0 -0 -0 -0 -0 -100 -119 -89 -70 -42 -23 -20 -15 -41
-0 -0 -0 -0 -0 -0 -0 -0 -0 -0 -0 -0 -0 -0 -0 -0 -0 -0 -0 -0 -0 -0 -0 -0 -0 -0 -0 -0 -0 -0 -0 -0 -0 -95 -78 -87 -91 -70 -57 -44 -20 -8 -11 -10
-0 -0 -0 -0 -0 -0 -0 -0 -0 -0 -0 -0 -0 -0 -0 -0 -0 -0 -0 -0 -0 -0 -0 -0 -0 -0 -0 -0 -0 -0 -0 -0 -0 -57 -43 -34 -35 -28 -34 -25 -23 -15 -23 -19
-0 -0 -0 -0 -0 -0 -0 -0 -0 -0 -0 -0 -0 -0 -0 -0 -0 -0 -0 -0 -0 -0 -0 -0 -0 -0 -0 -0 -0 -0 -0 -0 -0 -0 -48 -57 -51 -37 -32 -30 -17 -19 -18 -19
-0 -0 -0 -0 -0 -0 -0 -0 -0 -0 -0 -0 -0 -0 -0 -0 -0 -0 -0 -0 -0 -0 -0 -0 -0 -0 -0 -0 -0 -0 -0 -0 -0 -0 -0 -0 -0 -4 -50 -36 -16 -19 -22 -37
-0 -0 -0 -0 -0 -0 -0 -0 -0 -0 -0 -0 -0 -0 -0 -0 -0 -0 -0 -0 -0 -0 -0 -0 -0 -0 -0 -0 -0 -0 -0 -0 -0 -0 -0 -0 -0 -0 -0 -42 -28 -28 -30 -45
-0 -0 -0 -0 -0 -0 -0 -0 -0 -0 -0 -0 -0 -0 -0 -0 -0 -0 -0 -0 -0 -0 -0 -0 -0 -0 -0 -0 -0 -0 -0 -0 -0 -0 -0 -0 -0 -0 -0 -0 -54 -62 -63 -54
-0 -0 -0 -0 -0 -0 -0 -0 -0 -0 -0 -0 -0 -0 -0 -0 -0 -0 -0 -0 -0 -0 -0 -0 -0 -0 -0 -0 -0 -0 -0 -0 -0 -0 -0 -0 -0 -0 -0 -0 -0 -65 -67 -70
-0 -0 -0 -0 -0 -0 -0 -0 -0 -0 -0 -0 -0 -0 -0 -0 -0 -0 -0 -0 -0 -0 -0 -0 -0 -0 -0 -0 -0 -0 -0 -10 -0 -0 -0 -0 -0 -0 -0 -53 -80 -73 -75 -76
-0 -0 -0 -0 -0 -0 -0 -0 -0 -0 -0 -0 -0 -0 -0 -0 -0 -0 -0 -0 -0 -0 -0 -0 -0 -0 -0 -0 -0 -0 -0 -0 -2 -0 -0 -0 -19 -0 -0 -53 -61 -113 -142 -92
-0 -0 -0 -0 -0 -0 -0 -0 -0 -0 -0 -0 -0 -0 -0 -0 -0 -0 -0 -0 -0 -3 -4 -3 -2 -4 -3 -0 -3 -3 -1 -0 -2 -0 -4 -12 -6 -33 -36 -58 -7 -0 -0 -0
-0 -0 -0 -0 -0 -0 -0 -0 -0 -0 -0 -0 -0 -0 -0 -0 -2 -0 -0 -0 -2 -0 -1 -3 -2 -3 -3 -4 -3 -3 -3 -2 -3 -2 -0 -0 -0 -0 -0 -0 -0 -0 -0 -0
-0 -0 -0 -0 -0 -0 -0 -0 -0 -0 -0 -0 -0 -0 -0 -0 -0 -0 -0 -0 -0 -0 -0 -0 -1 -3 -3 -3 -2 -2 -1 -3 -3 -2 -3 -0 -0 -0 -0 -0 -0 -0 -0 -0
-0 -0 -0 -0 -0 -0 -0 -0 -0 -0 -0 -0 -0 -1 -2 -0 -0 -0 -0 -0 -0 -0 -0 -0 -1 -1 -2 -2 -2 -2 -2 -2 -1 -0 -0 -0 -0 -0 -0 -0 -0 -0 -0 -0
-0 -0 -0 -0 -0 -0 -0 -0 -0 -0 -0 -1 -1 -0 -0 -0 -0 -0 -0 -0 -0 -1 -1 -1 -2 -0 -0 -1 -1 -1 -2 -0 -1 -0 -0 -0 -0 -0 -0 -0 -0 -0 -0 -0
-0 -0 -0 -0 -0 -0 -0 -0 -0 -0 -0 -0 -0 -0 -0 -0 -0 -0 -0 -0 -1 -0 -0 -1 -0 -0 -0 -0 -0 -0 -0 -0 -0 -0 -0 -0 -0 -0 -0 -0 -0 -0 -0 -0
-0 -0 -0 -0 -0 -0 -0 -0 -0 -1 -0 -0 -0 -0 -0 -0 -0 -0 -0 -0 -1 -0 -1 -1 -0 -0 -0 -0 -1 -0 -0 -0 -0 -0 -0 -0 -0 -0 -0 -0 -0 -0 -0 -0
Wind_Speed
11 15 16 17 19 25 27 29 31 30 30 31 30 28 29 33 28 24 18 17 16 17 17 19 22 23 23 25 25 25 24 25 26 24 25 26 26 22 21 21 21 20 21 23
15 18 18 20 22 23 24 25 30 33 30 28 34 36 36 31 26 18 14 14 14 14 17 20 22 23 25 26 26 26 26 27 27 27 28 27 29 29 28 28 26 24 25 24
20 20 17 18 20 23 23 22 29 32 34 36 37 40 20 18 13 12 13 13 14 16 19 20 22 25 27 28 29 29 29 29 30 30 30 31 32 33 35 35 35 32 30 30
24 20 19 17 19 19 25 23 27 32 33 30 24 31 22 17 18 16 14 15 17 19 19 22 24 26 28 28 28 28 29 30 30 31 31 34 35 38 37 38 38 39 37 34
20 17 15 17 19 19 24 22 26 27 29 34 28 29 25 18 18 16 15 15 16 19 22 24 27 28 28 30 31 31 31 31 32 33 33 35 36 37 38 39 42 42 41 39
24 17 14 16 18 19 22 18 20 24 28 32 28 25 29 19 19 17 15 16 18 21 23 27 28 31 32 33 34 33 34 34 33 33 33 35 37 38 38 39 40 40 42 41
18 18 17 16 16 14 14 19 25 26 25 32 25 26 27 18 19 22 20 20 22 25 28 31 34 35 36 36 37 36 35 36 34 35 36 37 37 38 39 39 40 42 42 41
17 21 15 15 16 19 18 19 23 29 29 30 22 30 25 18 18 20 22 24 26 29 31 33 35 37 38 38 38 39 40 40 37 36 36 35 35 35 37 37 38 38 39 40
19 20 13 18 16 16 17 23 23 29 30 35 31 27 24 22 22 22 24 27 29 32 35 37 38 39 41 42 42 42 41 39 37 36 34 33 33 32 33 34 34 35 35 36
20 23 16 16 14 17 18 13 22 23 32 35 31 31 32 23 22 24 28 32 34 38 41 42 43 44 44 44 44 41 38 38 38 37 36 34 32 31 31 31 33 34 33 33
19 23 21 16 19 18 18 20 21 22 26 34 40 33 22 21 22 30 35 38 42 44 45 45 46 45 44 44 43 41 38 37 36 36 35 33 30 29 29 30 32 33 33 33
20 23 26 23 21 21 21 23 22 30 33 31 35 44 24 24 28 35 40 43 47 46 47 46 47 46 44 43 41 38 36 35 34 32 31 29 27 27 29 32 32 34 34 34
18 23 27 27 25 22 25 22 23 25 28 35 40 40 23 27 34 42 46 48 49 48 47 47 46 45 45 43 41 39 36 36 33 31 30 29 29 30 30 31 32 34 34 35
18 23 26 31 30 22 25 23 23 25 34 36 37 42 36 43 45 46 47 47 47 47 47 46 45 44 43 39 38 37 36 34 32 33 34 34 34 34 34 33 32 32 32 32
20 25 24 25 23 23 24 24 24 27 29 37 37 41 43 43 44 46 46 48 48 45 44 45 45 44 43 39 41 39 36 35 34 35 36 37 38 39 38 36 34 33 34 34
19 23 22 28 30 31 34 31 30 29 31 35 39 41 39 39 42 45 46 46 46 46 45 45 45 46 45 44 43 41 40 39 39 40 40 42 42 41 41 40 38 37 37 35
21 23 26 35 26 30 40 32 29 29 28 29 35 35 37 41 42 43 43 44 45 45 45 44 45 45 45 42 41 42 42 43 44 44 44 44 43 42 42 42 42 40 39 37
20 20 21 29 25 41 28 22 20 21 23 27 33 35 35 37 38 40 39 41 41 41 42 42 42 40 36 31 29 30 32 40 45 47 47 48 44 44 44 43 43 42 40 38
15 18 24 30 32 32 25 22 21 22 28 30 33 32 32 36 40 42 35 35 40 40 40 42 43 39 35 33 33 31 29 27 26 40 44 42 41 42 43 44 42 41 41 39
15 19 24 25 33 37 21 13 19 24 37 23 26 32 37 38 46 43 41 41 40 41 42 43 39 37 36 36 36 32 30 27 28 29 26 35 38 39 40 40 39 39 39 40
22 22 26 27 31 29 18 18 19 32 32 25 32 35 35 39 36 39 40 40 44 46 44 41 37 34 34 34 36 33 31 30 28 35 32 32 28 25 28 35 36 37 38 38
21 22 25 24 30 37 13 16 25 27 27 31 31 32 32 32 35 36 37 42 46 45 45 43 40 36 37 39 39 37 37 39 36 31 39 36 34 29 29 27 29 34 36 37
24 20 23 21 25 18 12 19 23 26 28 28 30 28 30 34 35 37 41 43 45 46 45 42 36 37 39 39 37 38 39 40 40 35 33 37 37 31 29 31 33 34 32 32
18 15 20 20 21 18 18 23 23 23 26 26 26 27 30 33 36 40 43 43 44 42 42 38 36 35 36 35 31 30 38 40 38 36 29 32 26 23 23 26 30 31 30 28
17 15 21 25 23 21 23 23 20 22 23 23 25 27 30 35 40 40 41 40 39 38 37 38 35 34 34 23 17 13 10 38 37 21 20 14 8 12 13 15 16 19 27 26
19 22 23 28 22 21 19 15 18 19 20 22 24 28 30 34 36 37 38 38 37 42 41 36 34 35 22 26 21 18 12 23 27 22 17 12 14 13 13 5 3 0 26 32
Wind_Direction
267 271 273 278 280 285 290 291 291 293 295 296 299 303 305 298 306 309 315 321 328 333 338 339 338 339 339 341 340 338 333 323 316 312 307 305 302 299 294 288 282 277 273 273
284 271 282 289 287 286 289 293 292 293 297 301 297 297 299 303 308 313 316 321 329 335 336 338 339 341 341 339 341 336 332 330 326 319 310 308 307 304 297 295 289 283 279 274
278 293 289 284 286 287 288 291 293 292 295 296 298 297 302 321 330 333 329 328 330 330 330 333 333 334 332 331 330 329 328 326 324 321 317 313 309 306 302 298 295 290 283 280
281 283 289 286 284 287 289 295 293 293 297 299 312 301 309 307 308 312 317 319 322 325 329 328 328 329 329 329 330 330 328 327 327 326 323 316 311 307 306 306 305 297 291 283
288 290 279 278 285 288 290 299 298 299 297 296 299 301 307 307 303 305 313 318 321 324 326 326 326 327 328 326 325 324 323 324 324 322 321 318 315 313 311 308 305 303 301 301
279 298 293 292 292 287 300 301 304 302 299 295 295 290 305 303 310 315 319 320 323 326 327 326 327 325 323 323 322 320 319 318 319 320 319 318 317 315 313 312 309 308 305 302
272 277 290 291 294 294 288 294 300 300 296 296 306 296 294 310 312 315 315 320 323 322 321 322 321 322 323 322 321 319 318 317 317 315 314 315 315 313 312 312 310 307 306 305
273 288 263 277 273 292 277 282 291 297 296 301 307 299 302 312 318 319 320 320 321 321 321 322 322 322 322 322 321 318 314 312 314 313 314 316 315 314 313 313 313 312 309 307
283 285 295 295 285 278 287 281 288 292 297 296 293 299 305 304 308 313 318 320 321 322 321 319 319 319 318 318 317 317 315 313 314 313 314 314 314 314 313 314 315 315 314 312
288 291 292 296 294 288 285 289 290 289 293 293 296 295 298 299 305 311 315 317 318 318 318 318 316 316 316 315 315 316 317 315 313 312 311 310 310 310 310 311 312 315 316 316
282 286 291 291 281 277 281 282 291 292 293 295 296 298 311 308 309 311 313 315 315 315 316 316 315 317 317 319 320 318 316 315 315 314 313 310 308 309 309 310 311 311 313 315
273 286 285 275 295 295 281 280 277 283 289 291 294 292 308 307 309 311 311 313 313 313 314 315 316 318 319 320 321 321 320 319 318 317 317 316 315 313 311 308 307 307 309 311
271 279 282 290 291 287 281 280 282 287 290 285 290 292 309 309 307 309 311 312 313 314 315 318 320 321 320 319 320 321 321 320 321 322 320 317 315 313 312 312 312 310 310 309
276 277 273 280 298 291 279 279 281 282 285 289 285 294 297 303 306 309 310 313 315 317 319 320 321 322 322 322 320 319 318 321 322 320 317 314 311 310 308 310 312 313 315 317
277 273 282 288 295 296 293 289 284 282 287 290 295 295 301 305 307 309 311 314 315 318 320 322 322 322 321 320 321 319 319 319 318 314 311 308 306 305 306 307 309 310 310 312
281 278 287 288 291 291 289 287 285 285 288 289 294 297 304 307 308 310 314 317 318 318 320 321 320 320 318 315 315 316 315 313 311 309 306 301 301 301 300 303 305 305 307 308
275 278 285 287 293 294 290 282 279 284 289 295 295 304 309 309 312 315 318 318 318 319 320 321 320 318 315 315 315 314 312 309 305 303 302 301 300 298 299 298 299 300 302 304
273 278 287 290 295 289 299 306 298 287 296 299 301 306 313 315 316 318 321 319 320 321 321 321 320 321 323 321 317 315 314 310 303 299 298 296 297 296 296 298 297 296 297 299
275 280 288 288 286 300 295 290 294 292 298 303 306 312 316 319 319 318 323 326 324 322 320 319 318 319 318 316 316 313 311 316 318 306 301 299 298 296 297 297 297 296 295 294
285 285 283 290 291 294 301 300 302 305 300 309 315 316 318 322 316 319 327 326 324 322 319 319 320 320 320 319 318 312 308 307 306 313 318 310 303 300 298 298 298 298 295 290
277 283 279 284 289 297 293 297 304 301 307 315 318 319 321 319 321 324 327 326 323 320 322 324 325 324 324 324 322 317 313 307 306 307 309 310 314 315 312 304 299 298 295 293
278 280 284 284 289 292 292 298 299 310 317 319 321 323 324 325 326 327 328 324 320 323 323 326 327 327 326 324 320 315 312 310 308 308 301 303 305 308 308 309 309 303 297 290
283 286 291 288 296 308 290 311 314 318 319 323 324 327 326 326 328 328 324 322 315 321 327 332 332 330 329 327 323 316 310 306 304 308 309 303 304 306 306 304 302 300 298 293
288 292 294 295 294 298 299 310 317 322 323 327 329 330 330 329 328 323 312 314 322 330 333 336 336 335 336 335 332 327 314 300 301 306 313 312 318 318 317 313 306 296 292 292
295 286 288 293 298 303 303 308 317 323 326 329 332 333 331 326 313 316 322 327 332 336 339 338 339 339 338 337 332 325 289 290 287 322 327 335 338 342 345 339 340 319 292 294
291 292 284 294 300 299 312 321 322 323 328 332 335 329 331 322 322 327 331 334 337 332 339 345 346 346 344 346 346 349 351 262 316 326 337 357 355 2 357 359 226 269 298 281